Location: Saint-Restitut
(44.3351°N, 4.7915°E)
Time: 12:43:34
(UTC+00:00)

Cosmos 2315 Rocket - Pass Details

Date: 03 February 2023
Orbit: 966 x 1002 km, 82.9° (Epoch: 19 March)

Event Time Altitude Azimuth Distance (km) Brightness Sun altitude
Rises 18:46:44 0° 165° (SSE) 3,687 6.9 -20.6°
Reaches altitude 10° 18:49:20 10° 159° (SSE) 2,747 6.2 -21.1°
Maximum altitude 18:55:16 44° 89° (E) 1,343 4.2 -22.1°
Drops below altitude 10° 19:01:15 10° 20° (NNE) 2,782 6.2 -23.2°
Sets 19:03:54 0° 14° (NNE) 3,737 6.9 -23.7°
